Погода в Вецпиебалге

Латвия     57°03′59″N   25°48′33″E
темп.,
°C
ветер,
м/с
пор.,
м/с
влажн.,
%
обл.,
%
осадки,
мм/ч
давл.,
гПа
погр.,
м
7 марта, вс
вс723:000зюз81593100 0.4 10041181
02:000з81694100 1.7 10011220
05:00−3сз3885100 3.8 10001105
08:00−4юз51193100 4.6 998766
11:00−2зсз81655100 1.6 9992396
14:00−2зсз8145695 1.6 9991966
17:00−4зсз71470100 0.1 10001605
20:00−4зсз61388100 0.5 10001464
8 марта, пн
пн823:00−5сз4991100 0.3 1002752
02:00−5ссз499299 0.7 1005705
05:00−8ссз4109064 0.1 1007701
08:00−7с598282 0.2 1010850
11:00−6с4773100 0.0 1013795
14:00−5с4667100 0.1 1015891
17:00−5ссз3670100 0.0 1016911
20:00−8с268678 0.0 1018158
9 марта, вт
вт923:00−10с24900 0.0 1019126
02:00−11ссз12870 0.0 102027
05:00−10зсз128148 0.0 102021
08:00−8юз247774 0.0 1021159
11:00−4юз3568100 0.0 1020483
14:00−2юз466099 0.0 1019933
17:00−3зюз4768100 0.0 1018925
20:00−4юз41082100 0.1 1017496
10 марта, ср
ср1023:00−4зюз41082100 0.0 1017549
02:00−4зюз41087100 0.0 1017482
05:00−5юз4993100 0.1 1017383
08:00−4зюз2593100 0.8 1019358
11:00−3св2385100 0.5 1019304
14:00−3всв358089 0.9 1020398
17:00−5св368585 0.1 1019405
20:00−7св379189 0.1 1020375
11 марта, чт
чт1123:00−8всв269397 0.1 1020289
02:00−8всв239297 0.1 1021180
05:00−10вюв239782 0.0 1019107
08:00−9ююв249379 0.1 1019180
11:00−4ююв487851 0.0 1016563
14:00−1ю596473 0.0 1013933
17:00−1ююв61264100 0.0 1009971
20:00−2ю81666100 0.0 10051024